This is the latest recevied weather packets stored in our database for station/object KE8GJZ-1. If no packets are shown the sender has not sent any weather packets the latest 10 day(s).
| Time | Temp. | Humidity | Pressure | Rain* | Wind** | Luminosity | Snow |
|---|---|---|---|---|---|---|---|
| 1777291296 | 8.89° C | 88% | 1017.2 hPa | 0 mm | - | 59 W/m² | - |
| 1777290993 | 8.33° C | 89% | 1016.9 hPa | 0 mm | - | 54 W/m² | - |
| 1777290691 | 7.78° C | 89% | 1016.9 hPa | 0 mm | - | 52 W/m² | - |
| 1777290387 | 7.78° C | 90% | 1016.9 hPa | 0 mm | - | 49 W/m² | - |
| 1777290082 | 7.22° C | 91% | 1016.9 hPa | 0 mm | - | 44 W/m² | - |
| 1777289780 | 7.22° C | 92% | 1017.2 hPa | 0 mm | - | 39 W/m² | - |
| 1777289475 | 6.67° C | 93% | 1017.2 hPa | 0 mm | - | 34 W/m² | - |
| 1777289172 | 6.67° C | 93% | 1017.5 hPa | 0 mm | - | 29 W/m² | - |
| 1777288868 | 6.11° C | 94% | 1017.3 hPa | 0 mm | - | 26 W/m² | - |
| 1777288565 | 6.11° C | 94% | 1017.6 hPa | 0 mm | - | 22 W/m² | - |
| 1777288262 | 6.11° C | 94% | 1017.6 hPa | 0 mm | - | 16 W/m² | - |
| 1777287957 | 6.11° C | 93% | 1017.5 hPa | 0 mm | - | 12 W/m² | - |
| 1777287655 | 6.11° C | 93% | 1017.6 hPa | 0 mm | - | 9 W/m² | - |
| 1777287350 | 6.11° C | 93% | 1017.6 hPa | 0 mm | - | 7 W/m² | - |
| 1777287047 | 6.11° C | 93% | 1017.3 hPa | 0 mm | - | 3 W/m² | - |
| 1777286744 | 6.11° C | 93% | 1017.6 hPa | 0 mm | - | 1 W/m² | - |
| 1777286442 | 6.11° C | 93% | 1017.6 hPa | 0 mm | - | 0 W/m² | - |
| 1777286139 | 6.11° C | 92% | 1017.3 hPa | 0 mm | - | 0 W/m² | - |
| 1777285836 | 6.11° C | 91% | 1017.3 hPa | 0 mm | - | 0 W/m² | - |
| 1777285533 | 6.67° C | 91% | 1017.3 hPa | 0 mm | - | 0 W/m² | - |
| 1777285231 | 6.67° C | 90% | 1017.5 hPa | 0 mm | - | 0 W/m² | - |
| 1777284928 | 6.67° C | 90% | 1017.3 hPa | 0 mm | - | 0 W/m² | - |
| 1777284625 | 6.67° C | 90% | 1017.5 hPa | 0 mm | - | 0 W/m² | - |
| 1777284321 | 6.67° C | 89% | 1017.5 hPa | 0 mm | - | 0 W/m² | - |
| 1777284018 | 7.22° C | 89% | 1017.3 hPa | 0 mm | - | 0 W/m² | - |
* Rain latest hour (hover to see other rain measurements)
** Current wind speed in m/s (hover to see current wind gust speed)